Sussex, NJ

8:19 PM EDT on May 20, 2018 (GMT -0400)
Sussex

Weather History for KFWN - June, 2013

Change the Weather History Date:

Thursday, June 13, 2013

  Actual Average Record
Temperature  
Mean Temperature 58 °F -  
Max Temperature 64 °F 77 °F 94 °F (1956)
Min Temperature 53 °F 53 °F 39 °F (1979)
Degree Days  
Heating Degree Days 6    
Growing Degree Days 8 (Base 50)    
Moisture  
Dew Point 56 °F    
Average Humidity 92    
Maximum Humidity 100    
Minimum Humidity 78    
Precipitation  
Precipitation 1.12 in - - ()
Sea Level Pressure  
Sea Level Pressure 29.63 in    
Wind  
Wind Speed 4 mph (NE)    
Max Wind Speed 15 mph    
Max Gust Speed 25 mph    
Visibility 6 miles    
Events Rain , Thunderstorm    
Averages and records for this station are not official NWS values.
T = Trace of Precipitation, MM = Missing Value Source: NWS Daily Summary

Daily Weather History Graph

Daily Weather History Graph

Search for Another Location

Airport or City:

Astronomy

Jun. 13, 2013 Rise Set
Actual Time 5:25 AM EDT 8:32 PM EDT
Civil Twilight 4:51 AM EDT 9:06 PM EDT
Nautical Twilight 4:08 AM EDT 9:49 PM EDT
Astronomical Twilight 3:17 AM EDT 10:40 PM EDT
Moon 10:01 AM EDT (6/13) 11:35 PM EDT (6/13)
Length of Visible Light 16h 14m
Length of Day
15h 07m
Waxing Crescent, 21% of the Moon is Illuminated
Jun 13
Waxing Crescent
Jun 16
First Quarter
Jun 23
Full
Jun 30
Last Quarter
Jul 8
New

Hourly Weather History & Observations

Time (EDT) Temp. Dew Point Humidity Pressure Visibility Wind Dir Wind Speed Gust Speed Precip Events Conditions
12:53 AM 55.0 °F 54.0 °F 96% 29.84 in 10.0 mi Calm Calm - N/A   Scattered Clouds
1:53 AM 55.9 °F 54.0 °F 93% 29.81 in 10.0 mi Calm Calm - N/A   Partly Cloudy
2:53 AM 54.0 °F 53.1 °F 97% 29.80 in 10.0 mi Calm Calm - N/A   Partly Cloudy
3:53 AM 55.9 °F 54.0 °F 93% 29.80 in 10.0 mi Calm Calm - N/A   Overcast
4:53 AM 57.0 °F 55.0 °F 93% 29.79 in 10.0 mi Calm Calm - N/A   Overcast
5:53 AM 57.0 °F 55.0 °F 93% 29.78 in 10.0 mi Calm Calm - N/A   Overcast
6:53 AM 57.9 °F 55.9 °F 93% 29.75 in 10.0 mi Calm Calm - 0.00 in   Overcast
7:53 AM 59.0 °F 57.0 °F 93% 29.75 in 10.0 mi Calm Calm - 0.04 in   Overcast
8:14 AM 59.0 °F 57.2 °F 94% 29.76 in 2.5 mi Calm Calm - 0.04 in Rain Rain
8:27 AM 59.0 °F 57.2 °F 94% 29.75 in 5.0 mi North 3.5 mph - 0.06 in Rain Light Rain
8:39 AM 59.0 °F 57.2 °F 94% 29.75 in 10.0 mi Calm Calm - 0.06 in Thunderstorm Overcast
8:53 AM 59.0 °F 57.9 °F 96% 29.73 in 6.0 mi Calm Calm - 0.07 in Rain Light Rain
9:22 AM 59.0 °F 57.2 °F 94% 29.74 in 1.8 mi SSE 3.5 mph - 0.07 in Rain Heavy Rain
9:33 AM 59.0 °F 57.2 °F 94% 29.73 in 3.0 mi Calm Calm - 0.09 in Rain Light Rain
9:53 AM 60.1 °F 57.9 °F 93% 29.70 in 4.0 mi Calm Calm - 0.12 in Rain Light Rain
10:53 AM 61.0 °F 55.9 °F 83% 29.66 in 10.0 mi Variable 4.6 mph - 0.03 in   Overcast
11:39 AM 62.6 °F 57.2 °F 82% 29.64 in 10.0 mi Variable 6.9 mph - 0.02 in   Overcast
11:53 AM 62.1 °F 55.9 °F 80% 29.64 in 10.0 mi Variable 4.6 mph - 0.02 in   Overcast
12:53 PM 64.0 °F 57.0 °F 78% 29.59 in 10.0 mi Variable 5.8 mph - N/A   Overcast
1:53 PM 61.0 °F 55.9 °F 83% 29.58 in 10.0 mi SE 9.2 mph 18.4 mph N/A   Overcast
2:49 PM 60.8 °F 55.4 °F 82% 29.57 in 10.0 mi ESE 8.1 mph - N/A   Overcast
2:53 PM 61.0 °F 55.9 °F 83% 29.57 in 10.0 mi East 8.1 mph - N/A   Overcast
3:53 PM 61.0 °F 55.9 °F 83% 29.56 in 10.0 mi East 5.8 mph - N/A   Overcast
4:53 PM 59.0 °F 57.0 °F 93% 29.52 in 3.0 mi NE 6.9 mph - 0.04 in Rain Rain
5:01 PM 59.0 °F 57.2 °F 94% 29.53 in 2.5 mi NNE 6.9 mph - 0.02 in Rain Light Rain
5:09 PM 59.0 °F 57.2 °F 94% 29.52 in 5.0 mi NNE 8.1 mph - 0.03 in Rain Light Rain
5:32 PM 57.2 °F 57.2 °F 100% 29.51 in 2.0 mi NNE 11.5 mph - 0.09 in Rain Rain
5:44 PM 57.2 °F 57.2 °F 100% 29.52 in 3.0 mi NNE 10.4 mph - 0.11 in Rain Light Rain
5:48 PM 57.2 °F 55.4 °F 94% 29.51 in 1.8 mi NNE 15.0 mph 19.6 mph 0.15 in Rain Heavy Rain
5:53 PM 57.9 °F 55.9 °F 93% 29.51 in 1.2 mi NNE 13.8 mph 19.6 mph 0.21 in Rain Heavy Rain
6:03 PM 57.2 °F 55.4 °F 94% 29.52 in 1.8 mi NNE 12.7 mph - 0.05 in Rain Heavy Rain
6:17 PM 57.2 °F 55.4 °F 94% 29.52 in 1.0 mi NNE 15.0 mph 21.9 mph 0.18 in Rain Heavy Rain
6:33 PM 57.2 °F 55.4 °F 94% 29.54 in 1.5 mi NNE 9.2 mph 23.0 mph 0.32 in Rain Heavy Rain
6:40 PM 57.2 °F 55.4 °F 94% 29.54 in 3.0 mi NNE 8.1 mph - 0.33 in Rain Light Rain
6:53 PM 57.9 °F 55.9 °F 93% 29.53 in 10.0 mi NNE 12.7 mph - 0.33 in Rain Light Rain
7:53 PM 57.0 °F 55.0 °F 93% 29.54 in 10.0 mi NNE 13.8 mph 24.2 mph 0.01 in   Overcast
8:53 PM 55.9 °F 54.0 °F 93% 29.54 in 10.0 mi NNE 13.8 mph 21.9 mph N/A   Overcast
9:53 PM 55.9 °F 54.0 °F 93% 29.56 in 7.0 mi NNE 12.7 mph 21.9 mph 0.01 in Rain Light Rain
10:53 PM 55.0 °F 53.1 °F 93% 29.57 in 4.0 mi NNE 13.8 mph 25.3 mph 0.14 in Rain Rain
11:01 PM 55.4 °F 53.6 °F 94% 29.58 in 3.0 mi NNE 12.7 mph 23.0 mph 0.02 in Rain Rain
11:10 PM 53.6 °F 51.8 °F 94% 29.58 in 3.0 mi NNE 13.8 mph 21.9 mph 0.04 in Rain Rain
11:17 PM 53.6 °F 51.8 °F 94% 29.58 in 4.0 mi NNE 13.8 mph 21.9 mph 0.05 in Rain Light Rain
11:53 PM 54.0 °F 51.1 °F 90% 29.59 in 7.0 mi NNE 15.0 mph 23.0 mph 0.10 in Rain Light Rain